Year,Month,Day,Hour,Minute,Value (Times are PST for temperature in C)
2012,10,06,00,00,8.20
2012,10,06,00,01,8.20
2012,10,06,00,02,8.20
2012,10,06,00,03,8.20
2012,10,06,00,04,8.20
2012,10,06,00,05,8.10
2012,10,06,00,06,8.10
2012,10,06,00,07,8.10
2012,10,06,00,08,8.10
2012,10,06,00,09,8.10
2012,10,06,00,10,8.10
2012,10,06,00,11,8.00
2012,10,06,00,12,8.00
2012,10,06,00,13,8.00
2012,10,06,00,14,7.90
2012,10,06,00,15,7.90
2012,10,06,00,16,7.90
2012,10,06,00,17,7.90
2012,10,06,00,18,7.90
2012,10,06,00,19,7.90
2012,10,06,00,20,7.80
2012,10,06,00,21,7.80
2012,10,06,00,22,7.80
2012,10,06,00,23,7.80
2012,10,06,00,24,7.80
2012,10,06,00,25,7.80
2012,10,06,00,26,7.80
2012,10,06,00,27,7.70
2012,10,06,00,28,7.70
2012,10,06,00,29,7.70
2012,10,06,00,30,7.70
2012,10,06,00,31,7.70
2012,10,06,00,32,7.70
2012,10,06,00,33,7.60
2012,10,06,00,34,7.60
2012,10,06,00,35,7.60
2012,10,06,00,36,7.60
2012,10,06,00,37,7.50
2012,10,06,00,38,7.40
2012,10,06,00,39,7.40
2012,10,06,00,40,7.40
2012,10,06,00,41,7.40
2012,10,06,00,42,7.30
2012,10,06,00,43,7.30
2012,10,06,00,44,7.30
2012,10,06,00,45,7.20
2012,10,06,00,46,7.20
2012,10,06,00,47,7.20
2012,10,06,00,48,7.20
2012,10,06,00,49,7.20
2012,10,06,00,50,7.10
2012,10,06,00,51,7.10
2012,10,06,00,52,7.00
2012,10,06,00,53,7.00
2012,10,06,00,54,6.90
2012,10,06,00,55,6.90
2012,10,06,00,56,6.90
2012,10,06,00,57,6.90
2012,10,06,00,58,6.80
2012,10,06,00,59,6.80
2012,10,06,01,00,6.80
2012,10,06,01,01,6.70
2012,10,06,01,02,6.70
2012,10,06,01,03,6.70
2012,10,06,01,04,6.70
2012,10,06,01,05,6.70
2012,10,06,01,06,6.70
2012,10,06,01,07,6.60
2012,10,06,01,08,6.60
2012,10,06,01,09,6.60
2012,10,06,01,10,6.60
2012,10,06,01,11,6.60
2012,10,06,01,12,6.60
2012,10,06,01,13,6.60
2012,10,06,01,14,6.50
2012,10,06,01,15,6.50
2012,10,06,01,16,6.50
2012,10,06,01,17,6.40
2012,10,06,01,18,6.40
2012,10,06,01,19,6.40
2012,10,06,01,20,6.40
2012,10,06,01,21,6.40
2012,10,06,01,22,6.40
2012,10,06,01,23,6.40
2012,10,06,01,24,6.30
2012,10,06,01,25,6.30
2012,10,06,01,26,6.30
2012,10,06,01,27,6.30
2012,10,06,01,28,6.30
2012,10,06,01,29,6.30
2012,10,06,01,30,6.40
2012,10,06,01,31,6.40
2012,10,06,01,32,6.40
2012,10,06,01,33,6.40
2012,10,06,01,34,6.50
2012,10,06,01,35,6.50
2012,10,06,01,36,6.50
2012,10,06,01,37,6.50
2012,10,06,01,38,6.60
2012,10,06,01,39,6.60
2012,10,06,01,40,6.60
2012,10,06,01,41,6.60
2012,10,06,01,42,6.60
2012,10,06,01,43,6.60
2012,10,06,01,44,6.60
2012,10,06,01,45,6.60
2012,10,06,01,46,6.60
2012,10,06,01,47,6.60
2012,10,06,01,48,6.60
2012,10,06,01,49,6.60
2012,10,06,01,50,6.50
2012,10,06,01,51,6.50
2012,10,06,01,52,6.50
2012,10,06,01,53,6.50
2012,10,06,01,54,6.40
2012,10,06,01,55,6.40
2012,10,06,01,56,6.40
2012,10,06,01,57,6.40
2012,10,06,01,58,6.30
2012,10,06,01,59,6.30
2012,10,06,02,00,6.30
2012,10,06,02,01,6.30
2012,10,06,02,02,6.30
2012,10,06,02,03,6.20
2012,10,06,02,04,6.20
2012,10,06,02,05,6.20
2012,10,06,02,06,6.20
2012,10,06,02,07,6.20
2012,10,06,02,08,6.20
2012,10,06,02,09,6.10
2012,10,06,02,10,6.10
2012,10,06,02,11,6.10
2012,10,06,02,12,6.00
2012,10,06,02,13,6.00
2012,10,06,02,14,5.90
2012,10,06,02,15,5.90
2012,10,06,02,16,5.90
2012,10,06,02,17,5.90
2012,10,06,02,18,5.90
2012,10,06,02,19,5.80
2012,10,06,02,20,5.80
2012,10,06,02,21,5.80
2012,10,06,02,22,5.80
2012,10,06,02,23,5.80
2012,10,06,02,24,5.70
2012,10,06,02,25,5.70
2012,10,06,02,26,5.70
2012,10,06,02,27,5.70
2012,10,06,02,28,5.70
2012,10,06,02,29,5.70
2012,10,06,02,30,5.70
2012,10,06,02,31,5.70
2012,10,06,02,32,5.70
2012,10,06,02,33,5.70
2012,10,06,02,34,5.70
2012,10,06,02,35,5.70
2012,10,06,02,36,5.70
2012,10,06,02,37,5.70
2012,10,06,02,38,5.70
2012,10,06,02,39,5.70
2012,10,06,02,40,5.60
2012,10,06,02,41,5.60
2012,10,06,02,42,5.60
2012,10,06,02,43,5.60
2012,10,06,02,44,5.60
2012,10,06,02,45,5.60
2012,10,06,02,46,5.60
2012,10,06,02,47,5.60
2012,10,06,02,48,5.60
2012,10,06,02,49,5.60
2012,10,06,02,50,5.50
2012,10,06,02,51,5.50
2012,10,06,02,52,5.50
2012,10,06,02,53,5.50
2012,10,06,02,54,5.50
2012,10,06,02,55,5.40
2012,10,06,02,56,5.40
2012,10,06,02,57,5.40
2012,10,06,02,58,5.40
2012,10,06,02,59,5.40
2012,10,06,03,00,5.40
2012,10,06,03,01,5.40
2012,10,06,03,02,5.40
2012,10,06,03,03,5.30
2012,10,06,03,04,5.30
2012,10,06,03,05,5.30
2012,10,06,03,09,5.30
2012,10,06,03,10,5.20
2012,10,06,03,11,5.20
2012,10,06,03,12,5.20
2012,10,06,03,13,5.20
2012,10,06,03,14,5.20
2012,10,06,03,15,5.20
2012,10,06,03,16,5.20
2012,10,06,03,17,5.20
2012,10,06,03,18,5.20
2012,10,06,03,20,5.20
2012,10,06,03,21,5.20
2012,10,06,03,22,5.20
2012,10,06,03,23,5.20
2012,10,06,03,24,5.20
2012,10,06,03,25,5.20
2012,10,06,03,26,5.20
2012,10,06,03,27,5.20
2012,10,06,03,28,5.20
2012,10,06,03,29,5.20
2012,10,06,03,30,5.10
2012,10,06,03,31,5.10
2012,10,06,03,32,5.10
2012,10,06,03,33,5.10
2012,10,06,03,34,5.00
2012,10,06,03,35,5.00
2012,10,06,03,36,4.90
2012,10,06,03,37,4.90
2012,10,06,03,38,4.90
2012,10,06,03,39,4.90
2012,10,06,03,40,4.90
2012,10,06,03,41,4.80
2012,10,06,03,42,4.80
2012,10,06,03,43,4.80
2012,10,06,03,44,4.80
2012,10,06,03,46,4.80
2012,10,06,03,47,4.70
2012,10,06,03,48,4.70
2012,10,06,03,49,4.70
2012,10,06,03,50,4.80
2012,10,06,03,51,4.80
2012,10,06,03,52,4.80
2012,10,06,03,53,4.70
2012,10,06,03,54,4.70
2012,10,06,03,57,4.70
2012,10,06,03,58,4.70
2012,10,06,03,59,4.70
2012,10,06,04,00,4.70
2012,10,06,04,01,4.70
2012,10,06,04,02,4.70
2012,10,06,04,03,4.60
2012,10,06,04,05,4.60
2012,10,06,04,06,4.60
2012,10,06,04,07,4.60
2012,10,06,04,08,4.60
2012,10,06,04,09,4.50
2012,10,06,04,10,4.50
2012,10,06,04,11,4.40
2012,10,06,04,12,4.40
2012,10,06,04,13,4.40
2012,10,06,04,14,4.40
2012,10,06,04,15,4.40
2012,10,06,04,16,4.40
2012,10,06,04,17,4.30
2012,10,06,04,18,4.30
2012,10,06,04,19,4.30
2012,10,06,04,20,4.30
2012,10,06,04,21,4.30
2012,10,06,04,22,4.30
2012,10,06,04,23,4.30
2012,10,06,04,24,4.30
2012,10,06,04,25,4.20
2012,10,06,04,26,4.20
2012,10,06,04,27,4.20
2012,10,06,04,28,4.20
2012,10,06,04,29,4.20
2012,10,06,04,30,4.10
2012,10,06,04,31,4.20
2012,10,06,04,32,4.10
2012,10,06,04,33,4.10
2012,10,06,04,34,4.10
2012,10,06,04,35,4.10
2012,10,06,04,36,4.10
2012,10,06,04,37,4.10
2012,10,06,04,38,4.10
2012,10,06,04,39,4.10
2012,10,06,04,40,4.10
2012,10,06,04,41,4.00
2012,10,06,04,42,4.00
2012,10,06,04,43,4.00
2012,10,06,04,44,4.00
2012,10,06,04,45,4.00
2012,10,06,04,46,4.00
2012,10,06,04,47,4.00
2012,10,06,04,48,4.00
2012,10,06,04,49,4.10
2012,10,06,04,50,4.10
2012,10,06,04,51,4.10
2012,10,06,04,52,4.10
2012,10,06,04,53,4.10
2012,10,06,04,54,4.10
2012,10,06,04,55,4.10
2012,10,06,04,56,4.10
2012,10,06,04,57,4.10
2012,10,06,04,58,4.10
2012,10,06,04,59,4.20
2012,10,06,05,00,4.10
2012,10,06,05,01,4.10
2012,10,06,05,02,4.10
2012,10,06,05,03,4.10
2012,10,06,05,04,4.10
2012,10,06,05,05,4.10
2012,10,06,05,06,4.10
2012,10,06,05,07,4.10
2012,10,06,05,08,4.10
2012,10,06,05,09,4.10
2012,10,06,05,10,4.10
2012,10,06,05,11,4.00
2012,10,06,05,12,4.00
2012,10,06,05,13,4.00
2012,10,06,05,14,3.90
2012,10,06,05,15,3.90
2012,10,06,05,16,3.90
2012,10,06,05,17,3.90
2012,10,06,05,18,3.90
2012,10,06,05,19,3.80
2012,10,06,05,20,3.80
2012,10,06,05,21,3.80
2012,10,06,05,22,3.80
2012,10,06,05,23,3.80
2012,10,06,05,24,3.80
2012,10,06,05,25,3.80
2012,10,06,05,26,3.70
2012,10,06,05,27,3.70
2012,10,06,05,28,3.70
2012,10,06,05,29,3.70
2012,10,06,05,30,3.70
2012,10,06,05,31,3.70
2012,10,06,05,32,3.80
2012,10,06,05,33,3.80
2012,10,06,05,34,3.80
2012,10,06,05,35,3.90
2012,10,06,05,36,3.90
2012,10,06,05,37,3.90
2012,10,06,05,38,4.00
2012,10,06,05,39,4.00
2012,10,06,05,40,4.00
2012,10,06,05,41,4.00
2012,10,06,05,42,4.00
2012,10,06,05,43,4.00
2012,10,06,05,44,4.00
2012,10,06,05,45,4.00
2012,10,06,05,46,4.00
2012,10,06,05,47,4.10
2012,10,06,05,48,4.10
2012,10,06,05,49,4.10
2012,10,06,05,50,4.10
2012,10,06,05,51,4.00
2012,10,06,05,52,4.00
2012,10,06,05,53,3.90
2012,10,06,05,54,3.90
2012,10,06,05,55,3.90
2012,10,06,05,56,3.90
2012,10,06,05,57,3.90
2012,10,06,05,58,3.80
2012,10,06,05,59,3.80
2012,10,06,06,00,3.80
2012,10,06,06,01,3.80
2012,10,06,06,02,3.80
2012,10,06,06,03,3.80
2012,10,06,06,04,3.80
2012,10,06,06,05,3.80
2012,10,06,06,06,3.80
2012,10,06,06,07,3.70
2012,10,06,06,08,3.70
2012,10,06,06,09,3.70
2012,10,06,06,10,3.80
2012,10,06,06,11,3.80
2012,10,06,06,12,3.80
2012,10,06,06,13,3.80
2012,10,06,06,14,3.80
2012,10,06,06,15,3.80
2012,10,06,06,16,3.80
2012,10,06,06,17,3.80
2012,10,06,06,18,3.80
2012,10,06,06,19,3.80
2012,10,06,06,20,3.80
2012,10,06,06,21,3.80
2012,10,06,06,22,3.80
2012,10,06,06,23,3.80
2012,10,06,06,24,3.80
2012,10,06,06,25,3.80
2012,10,06,06,26,3.80
2012,10,06,06,27,3.70
2012,10,06,06,28,3.70
2012,10,06,06,29,3.70
2012,10,06,06,30,3.70
2012,10,06,06,31,3.70
2012,10,06,06,32,3.70
2012,10,06,06,33,3.60
2012,10,06,06,34,3.60
2012,10,06,06,35,3.60
2012,10,06,06,36,3.60
2012,10,06,06,37,3.60
2012,10,06,06,38,3.50
2012,10,06,06,39,3.50
2012,10,06,06,40,3.50
2012,10,06,06,41,3.40
2012,10,06,06,42,3.40
2012,10,06,06,43,3.40
2012,10,06,06,44,3.40
2012,10,06,06,45,3.40
2012,10,06,06,46,3.30
2012,10,06,06,47,3.30
2012,10,06,06,48,3.30
2012,10,06,06,49,3.30
2012,10,06,06,50,3.30
2012,10,06,06,51,3.20
2012,10,06,06,52,3.20
2012,10,06,06,53,3.20
2012,10,06,06,54,3.20
2012,10,06,06,55,3.20
2012,10,06,06,56,3.20
2012,10,06,06,57,3.10
2012,10,06,06,58,3.10
2012,10,06,06,59,3.10
2012,10,06,07,00,3.10
2012,10,06,07,01,3.10
2012,10,06,07,02,3.10
2012,10,06,07,03,3.10
2012,10,06,07,04,3.10
2012,10,06,07,05,3.10
2012,10,06,07,06,3.10
2012,10,06,07,07,3.10
2012,10,06,07,08,3.10
2012,10,06,07,09,3.10
2012,10,06,07,10,3.10
2012,10,06,07,11,3.10
2012,10,06,07,12,3.10
2012,10,06,07,13,3.10
2012,10,06,07,14,3.10
2012,10,06,07,15,3.10
2012,10,06,07,16,3.10
2012,10,06,07,17,3.10
2012,10,06,07,18,3.10
2012,10,06,07,19,3.10
2012,10,06,07,20,3.10
2012,10,06,07,21,3.10
2012,10,06,07,22,3.10
2012,10,06,07,23,3.10
2012,10,06,07,24,3.10
2012,10,06,07,25,3.10
2012,10,06,07,26,3.10
2012,10,06,07,27,3.10
2012,10,06,07,28,3.10
2012,10,06,07,29,3.10
2012,10,06,07,30,3.10
2012,10,06,07,31,3.10
2012,10,06,07,32,3.10
2012,10,06,07,33,3.10
2012,10,06,07,34,3.10
2012,10,06,07,35,3.10
2012,10,06,07,36,3.10
2012,10,06,07,37,3.10
2012,10,06,07,38,3.10
2012,10,06,07,39,3.10
2012,10,06,07,40,3.00
2012,10,06,07,41,3.00
2012,10,06,07,42,3.00
2012,10,06,07,43,3.00
2012,10,06,07,44,3.00
2012,10,06,07,45,3.00
2012,10,06,07,46,3.00
2012,10,06,07,47,3.00
2012,10,06,07,48,3.00
2012,10,06,07,49,3.00
2012,10,06,07,50,3.00
2012,10,06,07,51,3.00
2012,10,06,07,52,3.00
2012,10,06,07,53,3.00
2012,10,06,07,54,3.00
2012,10,06,07,55,3.00
2012,10,06,07,56,3.00
2012,10,06,07,57,3.00
2012,10,06,07,58,3.00
2012,10,06,07,59,3.00
2012,10,06,08,00,3.00
2012,10,06,08,02,2.90
2012,10,06,08,03,3.00
2012,10,06,08,04,3.00
2012,10,06,08,05,3.00
2012,10,06,08,06,3.00
2012,10,06,08,07,3.00
2012,10,06,08,08,3.00
2012,10,06,08,09,3.10
2012,10,06,08,10,3.10
2012,10,06,08,11,3.10
2012,10,06,08,12,3.10
2012,10,06,08,13,3.20
2012,10,06,08,14,3.20
2012,10,06,08,15,3.20
2012,10,06,08,16,3.20
2012,10,06,08,17,3.30
2012,10,06,08,18,3.30
2012,10,06,08,19,3.30
2012,10,06,08,20,3.30
2012,10,06,08,21,3.40
2012,10,06,08,22,3.40
2012,10,06,08,23,3.40
2012,10,06,08,24,3.50
2012,10,06,08,25,3.50
2012,10,06,08,26,3.50
2012,10,06,08,27,3.50
2012,10,06,08,28,3.60
2012,10,06,08,29,3.60
2012,10,06,08,30,3.60
2012,10,06,08,31,3.60
2012,10,06,08,32,3.70
2012,10,06,08,33,3.70
2012,10,06,08,34,3.70
2012,10,06,08,35,3.80
2012,10,06,08,36,3.80
2012,10,06,08,37,3.90
2012,10,06,08,38,4.00
2012,10,06,08,39,4.10
2012,10,06,08,40,4.10
2012,10,06,08,41,4.20
2012,10,06,08,42,4.30
2012,10,06,08,43,4.40
2012,10,06,08,44,4.50
2012,10,06,08,45,4.60
2012,10,06,08,46,4.70
2012,10,06,08,47,4.80
2012,10,06,08,48,4.90
2012,10,06,08,49,5.00
2012,10,06,08,50,5.10
2012,10,06,08,51,5.20
2012,10,06,08,52,5.30
2012,10,06,08,53,5.30
2012,10,06,08,54,5.40
2012,10,06,08,55,5.50
2012,10,06,08,56,5.60
2012,10,06,08,57,5.70
2012,10,06,08,58,5.80
2012,10,06,08,59,5.80
2012,10,06,09,00,5.90
2012,10,06,09,01,5.90
2012,10,06,09,02,6.00
2012,10,06,09,03,6.00
2012,10,06,09,04,6.00
2012,10,06,09,05,6.10
2012,10,06,09,06,6.10
2012,10,06,09,07,6.20
2012,10,06,09,08,6.30
2012,10,06,09,09,6.40
2012,10,06,09,10,6.50
2012,10,06,09,11,6.60
2012,10,06,09,12,6.70
2012,10,06,09,13,6.80
2012,10,06,09,14,6.90
2012,10,06,09,15,7.00
2012,10,06,09,16,7.20
2012,10,06,09,17,7.30
2012,10,06,09,18,7.40
2012,10,06,09,19,7.60
2012,10,06,09,20,7.70
2012,10,06,09,21,7.70
2012,10,06,09,22,7.80
2012,10,06,09,23,7.80
2012,10,06,09,24,7.90
2012,10,06,09,25,8.00
2012,10,06,09,26,8.10
2012,10,06,09,27,8.20
2012,10,06,09,28,8.20
2012,10,06,09,29,8.30
2012,10,06,09,30,8.30
2012,10,06,09,31,8.40
2012,10,06,09,32,8.40
2012,10,06,09,33,8.40
2012,10,06,09,34,8.50
2012,10,06,09,35,8.50
2012,10,06,09,36,8.50
2012,10,06,09,37,8.50
2012,10,06,09,38,8.50
2012,10,06,09,39,8.50
2012,10,06,09,40,8.60
2012,10,06,09,41,8.60
2012,10,06,09,42,8.70
2012,10,06,09,43,8.70
2012,10,06,09,44,8.80
2012,10,06,09,45,8.80
2012,10,06,09,46,8.80
2012,10,06,09,47,8.90
2012,10,06,09,48,8.90
2012,10,06,09,49,9.00
2012,10,06,09,50,9.10
2012,10,06,09,51,9.10
2012,10,06,09,52,9.20
2012,10,06,09,53,9.30
2012,10,06,09,54,9.30
2012,10,06,09,55,9.40
2012,10,06,09,56,9.50
2012,10,06,09,57,9.60
2012,10,06,09,58,9.60
2012,10,06,09,59,9.60
2012,10,06,10,00,9.70
2012,10,06,10,01,9.70
2012,10,06,10,02,9.70
2012,10,06,10,03,9.70
2012,10,06,10,04,9.80
2012,10,06,10,05,9.80
2012,10,06,10,06,9.80
2012,10,06,10,07,9.80
2012,10,06,10,08,9.90
2012,10,06,10,09,9.90
2012,10,06,10,11,10.00
2012,10,06,10,12,10.10
2012,10,06,10,13,10.10
2012,10,06,10,14,10.20
2012,10,06,10,15,10.20
2012,10,06,10,16,10.20
2012,10,06,10,17,10.30
2012,10,06,10,18,10.30
2012,10,06,10,19,10.40
2012,10,06,10,20,10.40
2012,10,06,10,21,10.50
2012,10,06,10,22,10.60
2012,10,06,10,23,10.60
2012,10,06,10,24,10.70
2012,10,06,10,25,10.80
2012,10,06,10,26,10.80
2012,10,06,10,27,10.90
2012,10,06,10,28,10.90
2012,10,06,10,29,11.00
2012,10,06,10,30,11.10
2012,10,06,10,31,11.10
2012,10,06,10,32,11.10
2012,10,06,10,33,11.20
2012,10,06,10,34,11.20
2012,10,06,10,35,11.30
2012,10,06,10,36,11.30
2012,10,06,10,37,11.30
2012,10,06,10,38,11.40
2012,10,06,10,39,11.50
2012,10,06,10,40,11.60
2012,10,06,10,41,11.60
2012,10,06,10,42,11.70
2012,10,06,10,43,11.70
2012,10,06,10,44,11.80
2012,10,06,10,45,11.80
2012,10,06,10,46,11.90
2012,10,06,10,47,12.10
2012,10,06,10,48,12.20
2012,10,06,10,49,12.30
2012,10,06,10,50,12.30
2012,10,06,10,51,12.40
2012,10,06,10,52,12.60
2012,10,06,10,53,12.70
2012,10,06,10,54,12.80
2012,10,06,10,55,12.90
2012,10,06,10,56,12.90
2012,10,06,10,57,13.10
2012,10,06,10,58,13.10
2012,10,06,10,59,13.20
2012,10,06,11,00,13.20
2012,10,06,11,01,13.30
2012,10,06,11,02,13.30
2012,10,06,11,03,13.30
2012,10,06,11,04,13.40
2012,10,06,11,05,13.50
2012,10,06,11,06,13.60
2012,10,06,11,07,13.70
2012,10,06,11,08,13.70
2012,10,06,11,09,13.70
2012,10,06,11,10,13.80
2012,10,06,11,11,13.80
2012,10,06,11,12,13.80
2012,10,06,11,13,13.80
2012,10,06,11,14,13.90
2012,10,06,11,15,13.90
2012,10,06,11,16,13.90
2012,10,06,11,17,14.00
2012,10,06,11,18,14.10
2012,10,06,11,19,14.10
2012,10,06,11,20,14.20
2012,10,06,11,21,14.30
2012,10,06,11,22,14.40
2012,10,06,11,23,14.40
2012,10,06,11,24,14.60
2012,10,06,11,25,14.60
2012,10,06,11,26,14.70
2012,10,06,11,27,14.70
2012,10,06,11,28,14.80
2012,10,06,11,30,14.90
2012,10,06,11,31,15.00
2012,10,06,11,32,15.00
2012,10,06,11,33,15.00
2012,10,06,11,34,15.00
2012,10,06,11,35,15.10
2012,10,06,11,36,15.20
2012,10,06,11,37,15.20
2012,10,06,11,38,15.30
2012,10,06,11,39,15.30
2012,10,06,11,40,15.30
2012,10,06,11,41,15.40
2012,10,06,11,42,15.40
2012,10,06,11,43,15.50
2012,10,06,11,44,15.50
2012,10,06,11,45,15.60
2012,10,06,11,46,15.60
2012,10,06,11,47,15.60
2012,10,06,11,48,15.60
2012,10,06,11,49,15.70
2012,10,06,11,50,15.80
2012,10,06,11,51,15.90
2012,10,06,11,52,15.90
2012,10,06,11,53,15.90
2012,10,06,11,54,16.00
2012,10,06,11,55,16.10
2012,10,06,11,56,16.10
2012,10,06,11,57,16.20
2012,10,06,11,58,16.20
2012,10,06,11,59,16.20
2012,10,06,12,00,16.20
2012,10,06,12,01,16.20
2012,10,06,12,02,16.30
2012,10,06,12,03,16.30
2012,10,06,12,04,16.40
2012,10,06,12,05,16.50
2012,10,06,12,06,16.60
2012,10,06,12,07,16.70
2012,10,06,12,08,16.80
2012,10,06,12,09,16.80
2012,10,06,12,10,16.90
2012,10,06,12,11,16.90
2012,10,06,12,12,17.00
2012,10,06,12,13,17.10
2012,10,06,12,14,17.10
2012,10,06,12,15,17.20
2012,10,06,12,16,17.30
2012,10,06,12,17,17.40
2012,10,06,12,18,17.40
2012,10,06,12,19,17.60
2012,10,06,12,20,17.70
2012,10,06,12,21,17.80
2012,10,06,12,22,17.80
2012,10,06,12,24,17.90
2012,10,06,12,25,17.90
2012,10,06,12,26,17.90
2012,10,06,12,27,17.90
2012,10,06,12,28,17.90
2012,10,06,12,29,18.00
2012,10,06,12,30,18.00
2012,10,06,12,31,18.00
2012,10,06,12,32,18.10
2012,10,06,12,33,18.10
2012,10,06,12,34,18.10
2012,10,06,12,35,18.10
2012,10,06,12,36,18.10
2012,10,06,12,37,18.10
2012,10,06,12,38,18.10
2012,10,06,12,39,18.10
2012,10,06,12,40,18.10
2012,10,06,12,41,18.10
2012,10,06,12,42,18.10
2012,10,06,12,43,18.20
2012,10,06,12,44,18.20
2012,10,06,12,46,18.20
2012,10,06,12,47,18.30
2012,10,06,12,48,18.30
2012,10,06,12,49,18.40
2012,10,06,12,50,18.40
2012,10,06,12,51,18.50
2012,10,06,12,53,18.70
2012,10,06,12,54,18.70
2012,10,06,12,55,18.80
2012,10,06,12,56,18.90
2012,10,06,12,57,18.90
2012,10,06,12,58,19.00
2012,10,06,12,59,19.10
2012,10,06,13,00,19.10
2012,10,06,13,01,19.20
2012,10,06,13,02,19.20
2012,10,06,13,03,19.30
2012,10,06,13,04,19.30
2012,10,06,13,05,19.30
2012,10,06,13,06,19.30
2012,10,06,13,07,19.30
2012,10,06,13,08,19.40
2012,10,06,13,09,19.40
2012,10,06,13,11,19.50
2012,10,06,13,12,19.60
2012,10,06,13,13,19.70
2012,10,06,13,14,19.70
2012,10,06,13,15,19.80
2012,10,06,13,16,19.80
2012,10,06,13,17,19.90
2012,10,06,13,18,19.90
2012,10,06,13,19,19.90
2012,10,06,13,20,20.00
2012,10,06,13,21,20.10
2012,10,06,13,22,20.20
2012,10,06,13,23,20.20
2012,10,06,13,24,20.30
2012,10,06,13,25,20.30
2012,10,06,13,26,20.30
2012,10,06,13,27,20.30
2012,10,06,13,28,20.30
2012,10,06,13,29,20.30
2012,10,06,13,31,20.40
2012,10,06,13,32,20.50
2012,10,06,13,33,20.60
2012,10,06,13,34,20.60
2012,10,06,13,35,20.70
2012,10,06,13,36,20.80
2012,10,06,13,37,20.80
2012,10,06,13,38,20.90
2012,10,06,13,40,20.90
2012,10,06,13,41,20.90
2012,10,06,13,42,20.90
2012,10,06,13,43,20.90
2012,10,06,13,44,20.90
2012,10,06,13,45,20.90
2012,10,06,13,46,20.90
2012,10,06,13,47,20.90
2012,10,06,13,49,21.10
2012,10,06,13,50,21.10
2012,10,06,13,51,21.20
2012,10,06,13,52,21.30
2012,10,06,13,53,21.30
2012,10,06,13,54,21.40
2012,10,06,13,55,21.40
2012,10,06,13,56,21.50
2012,10,06,13,57,21.60
2012,10,06,13,58,21.60
2012,10,06,13,59,21.70
2012,10,06,14,01,21.80
2012,10,06,14,02,21.80
2012,10,06,14,04,21.80
2012,10,06,14,05,21.80
2012,10,06,14,06,21.80
2012,10,06,14,07,21.70
2012,10,06,14,08,21.80
2012,10,06,14,09,21.80
2012,10,06,14,10,21.80
2012,10,06,14,11,21.80
2012,10,06,14,12,21.90
2012,10,06,14,13,21.90
2012,10,06,14,14,22.00
2012,10,06,14,15,22.10
2012,10,06,14,16,22.10
2012,10,06,14,17,22.10
2012,10,06,14,18,22.20
2012,10,06,14,19,22.30
2012,10,06,14,20,22.30
2012,10,06,14,21,22.30
2012,10,06,14,22,22.30
2012,10,06,14,23,22.30
2012,10,06,14,24,22.40
2012,10,06,14,25,22.40
2012,10,06,14,26,22.50
2012,10,06,14,27,22.60
2012,10,06,14,28,22.70
2012,10,06,14,29,22.80
2012,10,06,14,30,22.80
2012,10,06,14,31,22.90
2012,10,06,14,32,23.00
2012,10,06,14,33,23.00
2012,10,06,14,34,23.00
2012,10,06,14,35,23.00
2012,10,06,14,36,22.90
2012,10,06,14,37,22.90
2012,10,06,14,38,22.80
2012,10,06,14,39,22.80
2012,10,06,14,40,22.80
2012,10,06,14,41,22.80
2012,10,06,14,42,22.80
2012,10,06,14,43,22.80
2012,10,06,14,44,22.80
2012,10,06,14,45,22.80
2012,10,06,14,47,22.80
2012,10,06,14,48,22.80
2012,10,06,14,49,22.80
2012,10,06,14,50,22.80
2012,10,06,14,51,22.80
2012,10,06,14,52,22.80
2012,10,06,14,53,22.90
2012,10,06,14,54,22.90
2012,10,06,14,55,23.00
2012,10,06,14,56,23.10
2012,10,06,14,57,23.10
2012,10,06,14,58,23.10
2012,10,06,14,59,23.10
2012,10,06,15,00,23.20
2012,10,06,15,01,23.20
2012,10,06,15,02,23.30
2012,10,06,15,03,23.30
2012,10,06,15,04,23.30
2012,10,06,15,05,23.30
2012,10,06,15,06,23.30
2012,10,06,15,07,23.30
2012,10,06,15,08,23.30
2012,10,06,15,09,23.30
2012,10,06,15,10,23.30
2012,10,06,15,11,23.30
2012,10,06,15,12,23.20
2012,10,06,15,13,23.20
2012,10,06,15,14,23.20
2012,10,06,15,15,23.20
2012,10,06,15,16,23.20
2012,10,06,15,17,23.20
2012,10,06,15,18,23.20
2012,10,06,15,19,23.20
2012,10,06,15,20,23.20
2012,10,06,15,21,23.30
2012,10,06,15,22,23.30
2012,10,06,15,23,23.30
2012,10,06,15,24,23.30
2012,10,06,15,25,23.40
2012,10,06,15,26,23.40
2012,10,06,15,27,23.40
2012,10,06,15,28,23.40
2012,10,06,15,29,23.40
2012,10,06,15,30,23.40
2012,10,06,15,31,23.40
2012,10,06,15,32,23.40
2012,10,06,15,33,23.40
2012,10,06,15,34,23.40
2012,10,06,15,35,23.40
2012,10,06,15,36,23.30
2012,10,06,15,37,23.30
2012,10,06,15,38,23.30
2012,10,06,15,39,23.30
2012,10,06,15,40,23.30
2012,10,06,15,41,23.20
2012,10,06,15,42,23.20
2012,10,06,15,43,23.20
2012,10,06,15,44,23.10
2012,10,06,15,45,23.10
2012,10,06,15,46,23.00
2012,10,06,15,47,22.90
2012,10,06,15,48,22.80
2012,10,06,15,49,22.70
2012,10,06,15,50,22.70
2012,10,06,15,51,22.60
2012,10,06,15,52,22.60
2012,10,06,15,53,22.60
2012,10,06,15,54,22.50
2012,10,06,15,55,22.50
2012,10,06,15,56,22.40
2012,10,06,15,57,22.40
2012,10,06,15,58,22.40
2012,10,06,15,59,22.40
2012,10,06,16,00,22.40
2012,10,06,16,01,22.40
2012,10,06,16,02,22.40
2012,10,06,16,03,22.40
2012,10,06,16,04,22.40
2012,10,06,16,05,22.40
2012,10,06,16,06,22.40
2012,10,06,16,07,22.40
2012,10,06,16,08,22.40
2012,10,06,16,09,22.40
2012,10,06,16,10,22.40
2012,10,06,16,11,22.40
2012,10,06,16,12,22.40
2012,10,06,16,13,22.40
2012,10,06,16,14,22.40
2012,10,06,16,15,22.40
2012,10,06,16,16,22.40
2012,10,06,16,17,22.40
2012,10,06,16,18,22.40
2012,10,06,16,19,22.40
2012,10,06,16,20,22.30
2012,10,06,16,21,22.30
2012,10,06,16,22,22.30
2012,10,06,16,23,22.20
2012,10,06,16,24,22.20
2012,10,06,16,25,22.20
2012,10,06,16,26,22.20
2012,10,06,16,27,22.20
2012,10,06,16,28,22.20
2012,10,06,16,29,22.20
2012,10,06,16,30,22.20
2012,10,06,16,31,22.10
2012,10,06,16,32,22.20
2012,10,06,16,33,22.20
2012,10,06,16,34,22.20
2012,10,06,16,35,22.20
2012,10,06,16,36,22.10
2012,10,06,16,37,22.10
2012,10,06,16,38,22.20
2012,10,06,16,40,22.20
2012,10,06,16,41,22.20
2012,10,06,16,42,22.20
2012,10,06,16,43,22.20
2012,10,06,16,44,22.20
2012,10,06,16,45,22.20
2012,10,06,16,46,22.20
2012,10,06,16,47,22.20
2012,10,06,16,48,22.20
2012,10,06,16,49,22.20
2012,10,06,16,50,22.10
2012,10,06,16,52,22.10
2012,10,06,16,53,22.10
2012,10,06,16,54,22.10
2012,10,06,16,55,22.10
2012,10,06,16,56,22.10
2012,10,06,16,57,22.10
2012,10,06,16,58,22.00
2012,10,06,16,59,22.00
2012,10,06,17,00,22.00
2012,10,06,17,01,22.00
2012,10,06,17,03,22.00
2012,10,06,17,04,22.00
2012,10,06,17,05,22.00
2012,10,06,17,06,22.00
2012,10,06,17,07,22.00
2012,10,06,17,09,22.00
2012,10,06,17,10,22.00
2012,10,06,17,11,22.00
2012,10,06,17,12,22.00
2012,10,06,17,13,21.90
2012,10,06,17,14,21.90
2012,10,06,17,15,21.90
2012,10,06,17,16,21.90
2012,10,06,17,17,21.90
2012,10,06,17,18,21.90
2012,10,06,17,19,21.90
2012,10,06,17,20,21.90
2012,10,06,17,21,21.90
2012,10,06,17,22,21.90
2012,10,06,17,23,21.90
2012,10,06,17,24,21.90
2012,10,06,17,25,21.90
2012,10,06,17,26,21.90
2012,10,06,17,27,21.80
2012,10,06,17,28,21.80
2012,10,06,17,29,21.80
2012,10,06,17,30,21.80
2012,10,06,17,31,21.80
2012,10,06,17,32,21.80
2012,10,06,17,33,21.80
2012,10,06,17,34,21.80
2012,10,06,17,35,21.80
2012,10,06,17,36,21.80
2012,10,06,17,37,21.80
2012,10,06,17,38,21.80
2012,10,06,17,39,21.70
2012,10,06,17,40,21.70
2012,10,06,17,42,21.70
2012,10,06,17,43,21.70
2012,10,06,17,44,21.70
2012,10,06,17,45,21.60
2012,10,06,17,46,21.60
2012,10,06,17,47,21.60
2012,10,06,17,49,21.60
2012,10,06,17,50,21.60
2012,10,06,17,51,21.60
2012,10,06,17,52,21.60
2012,10,06,17,53,21.60
2012,10,06,17,54,21.60
2012,10,06,17,55,21.60
2012,10,06,17,56,21.60
2012,10,06,17,57,21.60
2012,10,06,17,58,21.60
2012,10,06,18,00,21.50
2012,10,06,18,01,21.50
2012,10,06,18,02,21.40
2012,10,06,18,03,21.40
2012,10,06,18,05,21.30
2012,10,06,18,06,21.30
2012,10,06,18,07,21.30
2012,10,06,18,08,21.20
2012,10,06,18,09,21.20
2012,10,06,18,10,21.20
2012,10,06,18,11,21.20
2012,10,06,18,12,21.10
2012,10,06,18,13,21.10
2012,10,06,18,14,21.10